Location: Unspecified
(49.8670°N, 0.0000°E)
Time: 17:27:40
(UTC+00:00)

Vanguard 1 - Pass Details

Date: 26 June 2019
Orbit: 655 x 3829 km, 34.2° (Epoch: 22 August)

Event Time Altitude Azimuth Distance (km) Brightness Sun altitude
Rises 22:02:42 0° 181° (S) 7,909 - -12.1°
Reaches altitude 10° 22:12:35 10° 162° (SSE) 6,895 - -12.8°
Exits shadow 22:19:02 14° 145° (SE) 6,395 13.5 -13.2°
Maximum altitude 22:22:05 14° 137° (SE) 6,234 13.5 -13.4°
Drops below altitude 10° 22:30:35 10° 111° (ESE) 6,134 13.7 -14.0°
Sets 22:38:00 0° 91° (E) 6,552 14.1 -14.4°
